Regional Weather Roundup
Issued by NWS Northern Indiana

Home | Current Version | Previous Version | Text Only | Print | Product List | Glossary Off
Versions: 1 2 3 4 5 6 7 8 9 10 11 12 13 14 15 16 17 18 19 20 21 22 23 24 25 26 27 28 29 30 31 32 33 34 35 36 37 38 39 40 41 42 43 44 45 46 47 48 49 50

000
ASUS43 KIWX 210310
RWRIWX

KIWX WEATHER ROUNDUP
NATIONAL WEATHER SERVICE NORTHERN INDIANA
1100 PM EDT WED SEP 20 2017

NOTE: "FAIR" INDICATES FEW OR NO CLOUDS BELOW 12,000 FEET WITH NO
SIGNIFICANT WEATHER AND/OR OBSTRUCTIONS TO VISIBILITY.

* THESE STATIONS ARE NOT UNDER NWS QUALITY CONTROL. THEY ALSO MAY NOT
  REPORT WEATHER SUCH AS PRECIPITATION OR FOG.

INZ001>027-210400-
NORTHERN INDIANA

CITY           SKY/WX    TMP DP  RH WIND       PRES   REMARKS
GARY*          PTCLDY    82  66  57 S8        29.90R
VALPARAISO     CLEAR     77  69  76 S6        29.93R
MICHIGAN CITY* CLEAR     77  66  69 S6        29.93R
LAPORTE*       CLEAR     75  68  78 S5        29.95R
KNOX*          CLEAR     72  68  88 S7        29.93R
SOUTH BEND     CLEAR     77  70  79 S12       29.94R
GOSHEN         CLEAR     75  67  76 SE7       29.96R
MONTICELLO*    CLEAR     78  68  71 S6        29.94R
LOGANSPORT*    CLEAR     73  66  78 S6        29.96R
ROCHESTER*     CLEAR     79  72  78 SE5       29.97R
WARSAW*        CLEAR     73  68  83 SE3       29.97R
AUBURN*        CLEAR     72  66  83 CALM      29.99S
FORT WAYNE     CLEAR     71  66  84 S7        29.99R
HUNTINGTON*    CLEAR     73  69  87 S5        29.98R
PERU/GRISSOM   CLEAR     74  70  86 S7        29.96R

$$
INZ028>050-210400-
CENTRAL INDIANA

CITY           SKY/WX    TMP DP  RH WIND       PRES   REMARKS
LAFAYETTE      CLEAR     78  69  73 S6        29.94R
KOKOMO*        CLEAR     73  69  87 S8        29.98R
MUNCIE*        CLEAR     78  69  73 S7        29.99S
INDIANAPOLIS   CLEAR     77  70  79 SE8       29.98R

$$
MIZ043>046-050>051-056>058-064>065-071>073-077>080-210400-
SOUTHWEST LOWER MICHIGAN

CITY           SKY/WX    TMP DP  RH WIND       PRES   REMARKS
BATTLE CREEK   CLEAR     75  69  81 SE9       29.97R
BENTON HARBOR  CLEAR     78  67  68 S5        29.93R
COLDWATER*     CLEAR     73  70  92 SE5       29.98R
HILLSDALE*     MOCLDY    72  64  78 SE6       30.00R
HOLLAND        CLEAR     76  68  76 S7        29.94R
GRAND RAPIDS   PTCLDY    74  68  81 S7        29.94R
KALAMAZOO      CLEAR     76  67  73 S5        29.96R
STURGIS*       CLEAR     74  68  83 CALM      29.96S
THREE RIVERS*  FAIR      77  68  72 S7        29.96R

$$
OHZ001>008-015>018-024>025-210400-
NORTHWEST OHIO

CITY           SKY/WX    TMP DP  RH WIND       PRES   REMARKS
WAUSEON*       FAIR      68  68 100 SE5       29.99S
DEFIANCE       CLEAR     72  66  81 CALM      29.99R
FINDLAY        CLEAR     72  64  76 SE7       30.00R
TOLEDO EXPRESS CLEAR     70  69  97 E5        29.99S
TOLEDO METCALF CLEAR     70  66  87 SE7       30.01S
LIMA           CLEAR     70  67  90 S7        30.01S

$$
AND FOR LAKE MICHIGAN COASTAL AND OPEN LAKE BUOY OBSERVATIONS

STATION/POSITION TEMP    WIND        PRES    VSBY  WAVE
                 AIR SEA DIR/SP/G                  HT/PER
                 (F)     (DEG/KT/KT) (MB)    (MI)  (FT/S)
CALUMET HARBOR    82     180/  6/ 10 1011.7R
MICHIGAN CITY     81     170/ 11/ 12   N/A
BURNS HARBOR      81     180/ 10/ 18 1012.9R
SAINT JOSEPH      77     150/  1/  4 1014.6
SOUTH LAKE BUOY   73 69  150/ 10/ 12 1012.1R         1/ 3
4 MI NW BRIDGMAN  74 69  190/  8/ 10 1012.9          1/ 2
MICHIGAN CITY     76 70  180/  8/ 10   N/A           1

$$
&&




USA.gov is the U.S. government's official web portal to all federal, state and local government web resources and services.